Starlink 3617

operational
NORAD ID: 51780 Int'l Des: 2022-017 Owner: SPXS Country: US Constellation: starlink
LEOCIRCULAR

关于 Starlink 3617

正在加载描述...

实时位置

正在加载3D地球...

即将过境

高度历史

Altitude vs Time

uPlot chart will show altitude changes over time

两行轨道根数

1 51780U 22017N 25259.10033306 .00001836 00000-0 13339-3 0 9992
2 51780 53.2189 42.8730 0001207 87.4147 272.6984 15.08840620196060
Epoch: Sep 16, 2025 • Age: 10 hours

当前状态

高度 540.6 km
速度 7.59 km/s
星下点 0.67°N, 33.67°E
发射日期 Feb 25, 2022
运行时间 3.5 years
类型 internet

技术详情

分类 Payload
质量 297.00 kg
干质量 275.00 kg
总质量 297.00 kg
长度 0.20 m
直径 2.80 m
跨度 9.00 m
形状 Box + pan
制造商 SPXS
平台类型 Starlink
阶段状态 In Orbit
所有者/国家 SPXS/US

大型星座

Loading constellations...